Location: Karaa?a�
(36.7158°N, 30.4165°E)
Time: 13:54:52
(UTC+00:00)

ATLAS 5 CENTAUR R/B - Visible Passes

Search period start: 06 August 2020 00:00
Search period end: 16 August 2020 00:00
Orbit: 534 x 1124 km, 63.4° (Epoch: 03 August)

Date Brightness Start Highest point End Pass type
(mag) Time Alt. Az. Time Alt. Az. Time Alt. Az.
06 Aug 3.5 18:01:39 10° N 18:06:44 30° NE 18:10:58 16° E visible
06 Aug 2.9 19:45:45 10° NW 19:51:38 52° WSW 19:52:30 49° SW visible
07 Aug 3.6 17:42:30 10° N 17:47:30 28° NE 17:52:32 12° ESE visible
07 Aug 2.9 19:26:31 10° NW 19:32:27 55° WSW 19:34:05 45° SSW visible
08 Aug 3.6 17:23:23 10° N 17:28:16 27° NE 17:33:44 10° ESE visible
08 Aug 2.8 19:07:17 10° NW 19:13:15 59° WSW 19:15:44 38° S visible
09 Aug 2.8 18:48:05 10° NW 18:54:03 63° WSW 18:57:29 30° S visible
10 Aug 2.7 18:28:51 10° NW 18:34:52 67° WSW 18:39:18 23° SSE visible
11 Aug 2.7 18:09:38 10° NW 18:15:39 71° WSW 18:21:13 16° SSE visible
11 Aug 5.0 19:58:47 10° W 19:59:46 10° WSW 20:00:46 10° WSW visible
12 Aug 2.7 17:50:26 10° NW 17:56:28 76° WSW 18:03:14 11° SSE visible
12 Aug 5.0 19:38:41 10° W 19:40:36 11° WSW 19:42:35 10° SW visible
13 Aug 2.7 17:31:13 10° NW 17:37:15 80° WSW 17:44:10 10° SSE visible
13 Aug 5.0 19:18:56 10° W 19:21:27 12° WSW 19:24:02 10° SW visible
14 Aug 2.6 17:12:01 10° NNW 17:18:03 85° WSW 17:24:58 10° SSE visible
14 Aug 5.0 18:59:20 10° W 19:02:16 13° WSW 19:05:21 10° SW visible
15 Aug 5.0 18:39:47 10° WNW 18:43:06 15° WSW 18:46:35 10° SW visible
